Probability
3 1 0 0 0 0 0 0 0 0 0 0 0 0 0 0 0 0 0 0 0 0 0 0 0 0 0 0 0 0 0 0 0 0 0 0 0 0 0 0 0 0 0 0 1 1 1 0 0
1 0 0 0 0 0 0 0 0 0 0 0 0 0 0 0 0 0 0 0 0 0 0 0 0 0 0 0 0 0 0 0 0 0 0 0 0 0 0 0 0 0 0 0 0 0 0 0 0
0 0 0 0 0 0 0 0 0 0 0 0 0 0 0 0 0 0 0 0 0 0 0 0 0 0 0 0 0 0 0 0 0 0 0 0 0 0 0 0 0 0 0 0 0 0 0 0 0
0 0 0 0 0 0 0 0 0 0 0 0 0 0 0 0 0 0 0 0 0 0 0 0 0 0 0 0 0 0 0 0 0 0 0 0 0 0 0 0 0 0 0 0 0 0 0 0 0
0 0 0 0 0 0 0 0 0 0 0 0 0 0 0 0 0 0 0 0 0 0 0 0 0 0 0 0 0 0 0 0 0 0 0 0 0 0 0 1 1 1 1 0 0 0 0 0 0
0 0 0 0 0 0 0 0 0 0 0 0 0 0 0 0 0 0 0 0 0 0 0 0 0 0 0 0 0 0 0 0 0 0 0 0 0 0 1 2 2 2 2 1 1 2 1 0 0
0 0 0 0 0 0 0 0 0 0 0 0 0 0 0 0 0 0 0 0 0 0 0 0 0 0 0 0 0 0 0 0 0 0 0 0 0 1 1 3 3 3 3 3 3 3 2 1 0
0 0 0 0 0 0 0 0 0 0 0 0 0 0 0 0 0 0 0 0 0 0 0 0 0 0 0 0 0 0 0 0 0 0 0 0 0 1 2 3 3 3 3 3 3 3 2 1 0
0 0 0 0 0 0 0 0 0 0 0 0 0 0 0 0 0 0 0 0 0 0 0 0 0 0 0 0 0 0 0 0 0 0 0 0 0 1 2 3 3 3 3 3 3 2 1 0 0
0 0 0 0 0 0 0 0 0 0 0 0 0 0 0 0 0 0 0 0 0 0 0 0 0 0 0 0 0 0 0 0 0 0 0 0 0 0 1 1 2 2 2 2 2 1 0 0 0
0 0 0 0 0 0 0 0 0 0 0 0 0 0 0 0 0 0 0 0 0 0 0 0 0 0 0 0 0 0 0 0 0 0 0 0 0 0 0 0 1 1 1 1 1 0 0 0 0
0 0 0 0 0 0 0 0 0 0 0 0 0 0 0 0 0 0 0 0 0 0 0 0 0 0 0 0 0 0 0 0 0 0 0 0 0 0 0 0 0 0 0 0 0 0 0 0 0
0 0 0 0 0 0 0 0 0 0 0 0 0 0 0 0 0 0 0 0 0 0 0 0 0 0 0 0 0 0 0 0 0 0 0 0 0 0 0 0 0 0 0 0 0 0 0 0 0
0 0 0 0 0 0 0 0 0 0 0 0 0 0 0 0 0 0 0 0 0 0 0 0 0 0 0 0 0 0 0 0 0 0 0 0 0 0 0 0 0 0 0 0 0 0 0 0 0
0 0 0 0 0 0 0 0 0 0 0 0 0 0 0 0 0 0 0 0 1 1 1 0 0 0 0 0 0 0 0 0 0 0 0 0 0 0 0 0 0 0 0 0 0 0 0 0 0
0 0 0 0 0 0 0 0 0 0 0 0 0 0 0 0 0 0 0 0 1 2 2 1 1 1 1 0 0 0 0 0 0 0 0 0 0 0 0 0 0 0 0 0 0 0 0 0 0
0 0 0 0 0 0 0 0 0 0 0 0 0 0 0 0 0 0 0 0 1 2 3 3 2 2 2 1 0 0 0 0 0 0 0 0 0 0 0 0 0 0 0 0 0 0 0 0 0
0 0 0 0 0 0 0 0 0 0 0 0 0 0 0 0 0 0 0 0 0 1 2 3 3 3 3 2 1 1 0 0 0 0 0 0 0 0 0 0 0 0 0 0 0 0 0 0 0
0 0 0 0 0 0 0 0 0 0 0 0 0 0 0 0 0 0 0 0 0 0 1 2 3 3 3 3 3 2 1 0 0 0 0 0 0 0 0 0 0 0 0 0 0 0 0 0 0
0 0 0 0 0 0 0 0 0 0 0 0 0 0 0 0 0 0 0 0 0 0 0 1 3 3 3 3 3 3 2 1 0 0 0 0 0 0 0 0 0 0 0 0 0 0 0 0 0
0 0 0 0 0 0 0 0 0 0 0 0 0 0 0 0 0 0 0 0 0 0 0 1 2 3 3 3 3 3 3 1 1 1 0 0 0 0 0 0 0 0 0 0 0 0 0 0 0
0 0 0 0 0 0 0 0 0 0 0 0 0 0 0 0 0 0 0 0 0 0 0 1 2 3 3 3 3 3 3 3 2 2 1 0 0 0 0 0 0 0 0 0 0 0 0 0 0
0 0 0 0 0 0 0 0 0 0 0 0 0 0 0 0 0 0 0 0 0 0 0 1 2 3 3 3 3 3 3 3 3 3 1 0 0 0 0 0 0 0 0 0 0 0 0 0 0
0 0 0 0 0 0 0 0 0 0 0 0 0 0 0 0 0 0 0 0 0 0 0 1 2 3 3 3 3 3 3 3 3 3 2 1 0 0 0 1 0 0 0 0 0 0 0 0 0
0 0 0 0 0 0 0 0 0 0 0 0 0 0 0 0 0 0 0 0 0 0 0 0 1 2 3 3 3 3 3 3 3 3 3 2 1 0 0 0 0 0 0 0 0 0 0 0 0
0 0 0 0 0 0 0 0 0 0 0 0 0 0 0 0 0 0 0 0 0 0 0 0 0 1 3 3 3 3 3 3 3 3 3 3 2 0 0 0 0 0 0 0 0 0 0 0 0
0 0 0 0 0 0 0 0 0 0 0 0 0 0 0 0 0 0 0 0 0 0 0 0 0 1 2 3 3 3 3 3 3 3 3 2 1 0 0 0 0 0 0 0 0 0 0 0 0
0 0 0 0 0 0 0 0 0 0 0 0 0 0 0 0 0 0 0 0 0 0 0 0 0 0 1 3 3 3 3 3 3 3 1 1 0 0 0 0 0 0 0 0 0 0 0 0 0
0 0 0 0 0 0 0 0 0 0 0 0 0 0 0 0 0 0 0 0 0 0 0 0 0 1 1 3 3 3 3 3 3 2 1 0 0 0 0 0 0 0 0 0 0 0 0 0 0
0 0 0 0 0 0 0 0 0 0 0 0 0 0 0 0 0 0 0 0 0 0 0 0 1 2 2 3 3 3 3 3 3 2 1 0 0 0 0 0 0 0 0 0 0 0 0 0 0
Wind_Speed
3 4 3 4 6 6 3 2 1 2 2 2 3 5 5 4 2 1 2 1 1 0 1 1 3 4 4 5 5 5 5 6 6 6 6 6 6 6 6 6 6 6 7 7 7 8 8 8 8
2 2 4 5 6 4 2 2 1 1 3 3 4 4 4 3 2 2 0 1 1 1 1 2 3 4 4 5 5 5 6 6 7 7 6 6 6 6 6 6 6 6 6 7 7 7 8 8 8
2 3 4 5 4 3 1 0 1 3 3 2 3 4 3 2 1 1 1 2 2 1 2 2 4 4 4 4 5 5 6 6 7 7 7 7 7 7 6 6 6 6 7 7 7 8 8 8 8
3 5 5 6 4 1 1 1 3 5 3 4 3 4 2 1 1 2 3 3 2 1 2 2 3 4 4 4 5 5 6 7 7 6 7 7 7 6 6 6 6 7 7 8 8 8 8 9 9
4 5 6 4 2 2 1 1 2 4 2 3 3 4 2 3 2 4 4 3 2 1 1 2 3 4 4 5 5 6 6 7 7 7 7 7 7 7 7 7 7 7 7 8 8 8 8 9 8
5 5 5 2 2 2 1 1 3 4 3 3 4 3 1 1 3 3 3 2 2 2 2 2 3 4 4 5 6 7 7 7 8 8 8 8 8 7 7 7 7 7 8 8 9 9 9 8 8
5 5 3 2 1 2 1 2 3 4 3 2 4 4 0 1 2 3 3 2 2 2 2 2 3 3 4 5 5 6 7 7 8 8 9 9 8 8 8 8 8 7 8 8 8 9 9 8 9
4 5 3 1 1 0 0 2 2 3 2 3 4 5 3 3 3 4 4 3 2 2 2 2 2 3 3 3 4 5 6 7 8 8 9 8 8 9 9 8 8 8 9 9 9 9 9 9 10
4 6 2 2 3 1 1 2 2 2 4 2 1 3 3 6 6 5 3 2 1 1 1 1 2 2 2 3 4 5 6 7 7 6 8 7 5 5 5 7 9 9 9 10 10 10 10 10 10
4 3 3 3 4 3 1 2 3 3 3 2 2 2 5 7 6 5 3 2 1 1 1 0 0 1 2 2 3 3 3 4 4 3 4 3 4 4 6 8 10 10 10 10 11 12 11 8 5
3 3 2 1 2 2 2 1 2 6 2 4 6 6 6 6 5 5 4 3 3 2 1 1 1 1 1 1 2 2 2 2 3 3 3 3 3 3 4 3 5 6 7 5 7 7 5 5 4
3 1 2 1 1 2 3 2 2 3 5 5 6 7 7 7 6 6 5 4 2 2 2 1 1 1 1 1 1 1 1 1 2 2 2 2 2 3 3 3 3 3 3 4 4 4 5 5 5
2 0 0 1 1 2 3 2 2 2 1 4 6 6 7 7 6 4 4 4 3 3 2 2 2 2 1 1 1 2 1 1 1 1 2 2 2 2 2 2 3 3 3 3 3 4 5 5 5
1 1 1 1 1 1 3 0 1 3 3 5 6 6 6 6 6 3 3 3 4 4 3 2 2 2 2 1 1 1 1 1 1 1 2 2 2 2 2 2 2 2 3 3 3 3 4 3 4
2 2 3 2 0 1 3 1 2 3 4 5 5 5 5 5 4 5 5 5 5 4 3 3 3 2 3 2 1 1 1 2 1 1 1 2 2 3 2 2 2 2 2 3 3 3 3 3 4
3 3 1 3 0 1 4 3 4 2 5 5 4 4 4 4 5 5 5 4 4 4 3 3 3 3 3 2 2 1 2 2 1 1 1 2 2 3 2 2 2 2 2 2 2 2 3 3 3
3 0 2 3 1 2 3 4 4 2 5 5 4 4 4 4 3 4 4 5 5 5 4 3 3 3 3 2 2 2 2 2 1 1 1 2 2 3 3 2 2 2 2 2 2 3 2 2 2
2 2 2 3 2 2 2 4 4 3 5 5 4 4 4 4 6 4 3 4 4 4 4 3 3 3 3 2 2 2 3 2 1 1 1 1 2 3 3 2 2 2 2 2 2 3 2 2 2
3 2 2 3 2 2 3 5 5 4 4 5 4 5 5 6 4 2 3 3 4 4 4 3 3 3 3 2 2 2 1 1 1 1 1 2 2 2 3 2 2 2 2 2 2 2 2 2 1
2 2 2 3 1 2 2 5 5 3 6 7 7 7 6 5 2 1 2 3 4 4 4 4 4 3 3 2 2 2 2 1 0 1 1 2 2 2 2 3 2 2 2 2 2 2 2 1 1
2 3 3 2 2 2 1 5 4 2 2 3 4 5 5 6 5 4 3 4 4 4 5 5 4 4 3 3 3 3 2 2 2 1 1 1 1 2 2 3 2 2 2 2 2 2 2 1 0
3 3 3 2 1 2 1 3 6 2 2 2 4 4 5 5 5 4 4 4 5 5 4 4 4 3 3 4 3 4 2 1 1 1 0 1 1 1 2 2 2 2 1 2 2 2 2 2 1
3 1 2 1 2 1 1 1 7 2 2 4 4 4 4 4 5 5 6 6 5 4 4 4 3 3 3 4 4 4 2 1 1 1 1 1 1 1 1 1 1 1 1 2 2 1 2 2 2
3 5 5 4 4 1 2 2 6 3 4 4 3 3 3 3 4 4 4 3 3 3 3 3 4 3 3 3 3 4 4 2 2 1 1 0 1 1 0 1 1 1 1 2 2 2 2 2 2
4 5 4 4 3 4 2 2 6 4 4 4 4 3 3 3 3 3 3 4 4 4 4 4 4 3 3 3 3 3 4 4 4 3 2 2 1 1 2 1 1 1 1 2 2 2 2 2 2
3 7 6 3 3 4 2 3 5 3 3 1 1 1 1 2 2 3 3 4 4 4 4 4 4 4 3 3 3 3 3 3 3 3 3 3 2 2 2 1 2 1 1 1 2 2 2 2 2
4 3 5 5 2 1 4 4 5 4 4 4 3 2 0 1 2 2 2 3 3 4 4 5 5 4 4 4 3 3 3 3 3 3 2 2 2 2 2 2 2 1 1 1 2 2 2 2 2
4 7 5 4 3 2 4 3 4 4 4 3 2 1 1 1 1 1 2 2 2 3 3 3 3 3 3 3 3 2 3 3 3 3 2 2 2 1 1 1 1 1 1 1 2 2 2 2 1
3 3 4 4 4 5 2 5 4 4 4 3 2 2 2 2 2 1 2 2 2 2 2 2 2 2 2 3 3 3 3 3 3 3 3 2 2 2 2 2 2 2 2 2 2 2 2 2 1
3 5 6 4 3 3 3 6 3 2 3 2 1 1 1 1 0 1 2 2 2 2 2 2 2 2 2 3 2 3 2 2 3 3 3 2 2 3 3 2 2 2 2 2 2 2 2 2 2
Wind_Direction
82 88 84 61 55 52 46 0 39 66 62 39 61 79 91 80 89 129 275 164 159 28 350 13 52 63 68 71 70 69 70 71 71 74 78 75 71 73 78 84 88 89 88 86 86 87 89 87 82
80 85 58 59 75 67 360 346 68 111 141 138 77 76 74 61 63 108 15 183 132 94 29 35 61 65 70 71 70 70 74 72 71 72 73 73 70 69 73 79 82 83 88 89 90 94 91 87 83
79 56 74 66 81 129 149 317 127 97 107 105 77 62 82 88 86 166 205 141 105 65 24 24 59 62 66 71 72 72 74 74 74 71 67 66 65 65 68 76 81 84 89 90 92 93 86 83 78
73 46 54 67 73 189 183 174 143 115 80 54 90 68 57 22 162 167 131 120 108 64 24 22 55 65 66 76 83 81 77 75 74 70 66 61 61 61 59 69 81 84 87 87 87 88 81 78 75
62 71 60 54 34 348 342 145 129 110 88 63 88 92 46 359 81 110 119 122 122 86 33 29 60 67 68 78 85 81 79 75 74 70 67 62 58 52 52 64 75 74 79 81 82 81 78 76 72
56 65 78 72 13 355 7 64 107 91 96 99 103 107 54 359 109 128 129 125 120 101 61 35 51 69 73 80 85 80 76 72 69 67 65 61 56 51 62 74 82 79 78 77 76 78 76 75 75
92 84 104 119 68 20 45 79 111 115 115 145 138 115 124 254 175 132 121 95 70 64 61 33 25 36 54 69 82 83 77 72 69 65 63 57 54 63 74 79 83 81 79 76 76 78 76 74 75
112 95 79 72 114 331 70 79 107 123 137 135 126 137 188 207 150 110 89 74 61 47 45 33 25 31 34 36 60 76 76 71 66 62 58 54 48 56 63 70 76 74 71 72 72 70 71 71 71
84 77 120 189 174 196 147 102 79 83 102 94 128 164 175 136 125 111 88 58 45 49 25 21 18 24 35 37 46 53 57 58 57 55 53 49 32 34 45 58 65 65 66 68 69 66 67 67 64
82 114 203 204 181 174 146 127 140 99 88 79 70 79 112 127 136 141 145 163 192 224 260 284 354 14 37 49 53 44 45 42 43 43 38 38 33 31 42 47 59 62 65 65 63 61 60 59 51
105 155 197 182 172 149 130 111 122 126 162 192 175 160 141 142 152 165 174 186 205 211 226 211 197 59 66 61 63 54 46 40 40 44 44 43 38 33 39 40 42 47 54 53 52 50 47 50 50
104 169 166 177 153 135 151 136 118 165 210 197 172 157 152 159 176 184 186 194 187 185 219 217 159 111 88 84 74 77 65 52 42 37 50 61 51 41 40 42 42 47 49 56 53 55 54 53 52
104 195 101 141 100 125 117 131 155 225 212 124 133 141 160 176 189 195 192 185 177 192 213 205 174 163 144 109 92 89 80 74 56 48 57 81 79 61 52 46 50 53 56 62 60 59 59 54 51
170 103 23 21 54 88 125 130 124 239 138 129 145 164 181 190 192 186 188 190 191 194 204 196 180 172 147 134 125 106 95 85 68 57 68 88 95 88 73 63 55 58 66 68 68 66 65 59 55
83 60 1 341 70 160 115 17 240 220 144 155 171 183 194 207 197 196 200 197 194 192 190 183 176 148 143 143 139 114 102 92 80 66 79 94 102 100 92 80 67 64 75 75 72 65 62 65 60
64 59 333 296 140 131 123 250 266 191 158 182 196 201 210 221 217 215 206 195 184 175 173 178 164 142 143 141 129 109 101 97 81 71 79 89 102 107 99 91 80 74 76 79 82 71 66 58 56
36 64 256 291 256 136 147 234 265 186 169 193 209 217 219 231 240 231 211 192 179 173 164 161 148 140 140 125 101 92 85 83 80 75 76 87 101 111 109 99 90 89 81 73 83 70 81 75 60
229 225 246 257 265 134 187 244 259 206 185 204 212 218 221 226 234 226 207 189 172 160 152 155 144 128 117 96 80 70 62 53 54 63 73 97 102 112 111 104 98 94 90 76 80 83 71 80 70
186 194 246 267 252 159 224 253 261 222 205 220 225 222 224 233 243 212 186 167 149 144 149 159 151 141 126 115 113 106 95 49 46 57 78 97 102 110 111 113 109 106 110 117 117 109 91 69 67
185 197 253 294 299 166 255 273 264 218 211 213 215 219 218 223 234 197 171 159 161 164 165 164 165 156 153 146 135 126 121 106 88 32 51 74 96 106 115 117 120 116 113 108 120 130 119 100 78
213 198 215 228 356 34 22 319 294 277 236 224 220 219 214 208 205 200 183 183 173 176 180 177 178 165 153 130 102 83 64 50 39 29 20 13 75 103 107 124 130 133 135 148 158 154 143 155 65
241 227 192 168 99 297 72 289 288 289 312 269 250 231 224 217 204 193 185 187 191 191 179 175 170 158 146 140 135 134 141 160 204 195 221 12 43 90 114 134 145 146 150 164 180 163 159 150 172
209 81 112 130 143 353 352 216 289 337 297 273 260 241 231 219 201 197 195 195 190 175 166 164 150 145 146 149 148 144 147 169 145 109 93 38 13 27 98 145 146 152 163 178 182 157 167 166 171
131 71 55 49 72 307 248 190 283 267 250 272 268 243 225 214 203 201 195 179 172 160 153 149 146 154 153 154 154 159 164 161 147 152 156 291 326 326 325 171 160 165 178 191 197 187 185 185 175
85 85 32 4 11 261 267 201 256 268 256 232 243 246 224 194 183 187 179 176 175 167 166 161 155 164 163 163 171 177 178 177 181 187 194 201 224 248 259 224 201 195 204 202 191 183 196 191 183
150 137 152 194 232 285 325 241 257 287 299 271 219 205 167 159 178 182 182 181 178 171 168 163 165 174 175 178 188 186 184 185 193 194 196 205 215 226 228 213 206 202 197 194 176 177 194 184 188
133 154 162 137 162 280 286 290 310 359 6 17 39 64 107 182 180 175 176 171 172 172 179 179 177 182 186 189 190 193 194 193 196 199 200 211 229 228 210 202 202 203 195 178 165 177 187 165 180
135 141 105 122 153 252 292 285 272 305 317 334 350 328 282 272 208 169 173 176 175 178 176 164 169 188 191 186 192 200 211 207 197 187 202 218 231 235 204 206 204 200 194 162 151 165 170 162 183
102 106 114 121 153 165 246 271 232 232 243 248 269 273 266 240 212 193 184 179 164 153 158 162 171 191 199 198 198 200 215 206 199 200 210 213 217 215 217 219 209 203 197 176 162 169 160 169 183
165 164 147 154 210 180 181 262 280 250 248 222 261 299 313 277 205 164 166 152 145 152 176 184 188 206 215 207 192 204 210 201 204 216 224 216 219 218 215 209 203 207 201 183 178 179 169 169 184